| time (UTC) | temp F | wind direction | speed MPH | gust MPH | rain 1hr in | rain 24hr in | rain mn in | humidity % | barometer mb |
| 20260508190018 | 66 | 157 | 13.0 | 29.0 | 0.00 | 0.00 | 0.00 | 34 | 1002.7 |
| 20260508185517 | 66 | 342 | 13.0 | 28.0 | 0.00 | 0.00 | 0.00 | 33 | 1002.7 |
| 20260508185019 | 66 | 319 | 12.0 | 21.0 | 0.00 | 0.00 | 0.00 | 34 | 1002.6 |
| 20260508184518 | 67 | 334 | 12.0 | 22.0 | 0.00 | 0.00 | 0.00 | 32 | 1002.7 |
| 20260508184016 | 67 | 348 | 8.0 | 22.0 | 0.00 | 0.00 | 0.00 | 30 | 1002.5 |
| 20260508183517 | 67 | 278 | 10.0 | 29.0 | 0.00 | 0.00 | 0.00 | 29 | 1002.5 |
| 20260508183023 | 67 | 338 | 11.0 | 29.0 | 0.00 | 0.00 | 0.00 | 28 | 1002.4 |
| 20260508182517 | 67 | 297 | 9.0 | 28.0 | 0.00 | 0.00 | 0.00 | 28 | 1002.5 |
| 20260508182015 | 67 | 308 | 11.0 | 28.0 | 0.00 | 0.00 | 0.00 | 28 | 1002.5 |
| 20260508181514 | 67 | 260 | 7.0 | 21.0 | 0.00 | 0.00 | 0.00 | 28 | 1002.4 |
| 20260508181017 | 68 | 248 | 10.0 | 24.0 | 0.00 | 0.00 | 0.00 | 26 | 1002.5 |
| 20260508180514 | 67 | 302 | 9.0 | 24.0 | 0.00 | 0.00 | 0.00 | 28 | 1002.5 |
| 20260508180015 | 67 | 299 | 8.0 | 17.0 | 0.00 | 0.00 | 0.00 | 29 | 1002.5 |
| 20260508175512 | 67 | 294 | 8.0 | 18.0 | 0.00 | 0.00 | 0.00 | 27 | 1002.7 |
| 20260508175022 | 67 | 355 | 8.0 | 26.0 | 0.00 | 0.00 | 0.00 | 27 | 1002.7 |
| 20260508174513 | 67 | 259 | 12.0 | 26.0 | 0.00 | 0.00 | 0.00 | 28 | 1002.8 |
| 20260508174010 | 66 | 335 | 12.0 | 21.0 | 0.00 | 0.00 | 0.00 | 26 | 1002.8 |
| 20260508173509 | 67 | 276 | 9.0 | 17.0 | 0.00 | 0.00 | 0.00 | 26 | 1002.8 |
| 20260508173008 | 67 | 268 | 8.0 | 17.0 | 0.00 | 0.00 | 0.00 | 26 | 1002.9 |
| 20260508172512 | 66 | 268 | 6.0 | 17.0 | 0.00 | 0.00 | 0.00 | 28 | 1002.9 |
| 20260508172008 | 66 | 275 | 8.0 | 17.0 | 0.00 | 0.00 | 0.00 | 26 | 1003.1 |
| 20260508171506 | 66 | 266 | 5.0 | 13.0 | 0.00 | 0.00 | 0.00 | 27 | 1003.2 |
| 20260508171004 | 66 | 264 | 6.0 | 12.0 | 0.00 | 0.00 | 0.00 | 28 | 1003.2 |
| 20260508170504 | 65 | 285 | 5.0 | 13.0 | 0.00 | 0.00 | 0.00 | 29 | 1003.3 |
| 20260508170002 | 65 | 278 | 3.0 | 14.0 | 0.00 | 0.00 | 0.00 | 30 | 1003.4 |
| 20260508165502 | 65 | 232 | 5.0 | 23.0 | 0.00 | 0.00 | 0.00 | 30 | 1003.4 |
| 20260508165001 | 65 | 271 | 7.0 | 23.0 | 0.00 | 0.00 | 0.00 | 29 | 1003.6 |
| 20260508164602 | 65 | 294 | 6.0 | 17.0 | 0.00 | 0.00 | 0.00 | 30 | 1003.5 |
| 20260508164059 | 64 | 214 | 3.0 | 12.0 | 0.00 | 0.00 | 0.00 | 30 | 1003.7 |
| 20260508163559 | 64 | 194 | 5.0 | 15.0 | 0.00 | 0.00 | 0.00 | 31 | 1003.8 |
| 20260508163056 | 63 | 298 | 2.0 | 15.0 | 0.00 | 0.00 | 0.00 | 31 | 1003.8 |
| 20260508162555 | 63 | 250 | 5.0 | 11.0 | 0.00 | 0.00 | 0.00 | 32 | 1003.9 |
| 20260508162055 | 63 | 250 | 3.0 | 10.0 | 0.00 | 0.00 | 0.00 | 31 | 1003.9 |
| 20260508161553 | 63 | 220 | 5.0 | 11.0 | 0.00 | 0.00 | 0.00 | 30 | 1004.0 |
| 20260508161052 | 62 | 219 | 1.0 | 12.0 | 0.00 | 0.00 | 0.00 | 32 | 1004.0 |
| 20260508160551 | 62 | 220 | 7.0 | 12.0 | 0.00 | 0.00 | 0.00 | 32 | 1004.0 |
| 20260508160050 | 62 | 202 | 3.0 | 13.0 | 0.00 | 0.00 | 0.00 | 33 | 1004.0 |
| 20260508155549 | 62 | 218 | 6.0 | 13.0 | 0.00 | 0.00 | 0.00 | 31 | 1004.1 |
| 20260508155050 | 61 | 254 | 4.0 | 12.0 | 0.00 | 0.00 | 0.00 | 32 | 1004.1 |
| 20260508154606 | 61 | 261 | 2.0 | 9.0 | 0.00 | 0.00 | 0.00 | 34 | 1004.1 |
| 20260508154046 | 60 | 304 | 5.0 | 9.0 | 0.00 | 0.00 | 0.00 | 33 | 1004.2 |
| 20260508153545 | 60 | 234 | 3.0 | 9.0 | 0.00 | 0.00 | 0.00 | 34 | 1004.2 |
| 20260508153046 | 59 | 321 | 2.0 | 11.0 | 0.00 | 0.00 | 0.00 | 36 | 1004.2 |
| 20260508152543 | 59 | 175 | 6.0 | 12.0 | 0.00 | 0.00 | 0.00 | 34 | 1004.2 |
| 20260508152041 | 58 | 193 | 3.0 | 8.0 | 0.00 | 0.00 | 0.00 | 40 | 1004.2 |
| 20260508151640 | 57 | 208 | 5.0 | 8.0 | 0.00 | 0.00 | 0.00 | 39 | 1004.3 |
| 20260508151038 | 57 | 202 | 3.0 | 8.0 | 0.00 | 0.00 | 0.00 | 40 | 1004.3 |
| 20260508150538 | 56 | 220 | 2.0 | 10.0 | 0.00 | 0.00 | 0.00 | 40 | 1004.3 |
| 20260508150040 | 56 | 226 | 5.0 | 10.0 | 0.00 | 0.00 | 0.00 | 40 | 1004.5 |
| 20260508145537 | 56 | 216 | 4.0 | 13.0 | 0.00 | 0.00 | 0.00 | 41 | 1004.5 |
| 20260508145038 | 56 | 206 | 6.0 | 13.0 | 0.00 | 0.00 | 0.00 | 40 | 1004.6 |
| 20260508144539 | 56 | 205 | 7.0 | 11.0 | 0.00 | 0.00 | 0.00 | 40 | 1004.6 |
| 20260508144036 | 57 | 193 | 8.0 | 11.0 | 0.00 | 0.00 | 0.00 | 39 | 1004.6 |
| 20260508143538 | 57 | 224 | 3.0 | 12.0 | 0.00 | 0.00 | 0.00 | 39 | 1004.6 |
| 20260508143034 | 56 | 211 | 6.0 | 12.0 | 0.00 | 0.00 | 0.00 | 39 | 1004.6 |
| 20260508142534 | 56 | 185 | 6.0 | 10.0 | 0.00 | 0.00 | 0.00 | 39 | 1004.5 |
| 20260508142034 | 55 | 216 | 3.0 | 9.0 | 0.00 | 0.00 | 0.00 | 41 | 1004.5 |
| 20260508141533 | 55 | 215 | 5.0 | 9.0 | 0.00 | 0.00 | 0.00 | 41 | 1004.6 |
| 20260508141028 | 54 | 205 | 3.0 | 9.0 | 0.00 | 0.00 | 0.00 | 41 | 1004.7 |
| 20260508140528 | 54 | 183 | 4.0 | 9.0 | 0.00 | 0.00 | 0.00 | 41 | 1004.8 |
| 20260508140025 | 53 | 215 | 4.0 | 9.0 | 0.00 | 0.00 | 0.00 | 41 | 1004.8 |
| 20260508135524 | 53 | 180 | 6.0 | 10.0 | 0.00 | 0.00 | 0.00 | 41 | 1004.8 |
| 20260508135022 | 52 | 209 | 5.0 | 9.0 | 0.00 | 0.00 | 0.00 | 43 | 1004.9 |
| 20260508134521 | 52 | 187 | 4.0 | 9.0 | 0.00 | 0.00 | 0.00 | 44 | 1005.1 |
| 20260508134019 | 52 | 214 | 4.0 | 8.0 | 0.00 | 0.00 | 0.00 | 44 | 1005.2 |
| 20260508133518 | 52 | 198 | 3.0 | 7.0 | 0.00 | 0.00 | 0.00 | 45 | 1005.2 |
| 20260508133024 | 51 | 195 | 2.0 | 7.0 | 0.00 | 0.00 | 0.00 | 49 | 1005.2 |
| 20260508132517 | 50 | 212 | 2.0 | 6.0 | 0.00 | 0.00 | 0.00 | 50 | 1005.3 |
| 20260508132014 | 49 | 179 | 2.0 | 6.0 | 0.00 | 0.00 | 0.00 | 51 | 1005.3 |
| 20260508131512 | 49 | 211 | 2.0 | 4.0 | 0.00 | 0.00 | 0.00 | 52 | 1005.4 |
| 20260508131010 | 48 | 208 | 2.0 | 5.0 | 0.00 | 0.00 | 0.00 | 53 | 1005.4 |
| 20260508130508 | 47 | 194 | 2.0 | 6.0 | 0.00 | 0.00 | 0.00 | 53 | 1005.3 |
| 20260508130011 | 46 | 192 | 3.0 | 5.0 | 0.00 | 0.00 | 0.00 | 54 | 1005.5 |
| 20260508125506 | 45 | 179 | 1.0 | 6.0 | 0.00 | 0.00 | 0.00 | 55 | 1005.4 |
| 20260508125004 | 45 | 208 | 2.0 | 6.0 | 0.00 | 0.00 | 0.00 | 55 | 1005.5 |
| 20260508124504 | 45 | 169 | 2.0 | 5.0 | 0.00 | 0.00 | 0.00 | 56 | 1005.5 |
| 20260508124003 | 44 | 161 | 2.0 | 5.0 | 0.00 | 0.00 | 0.00 | 56 | 1005.6 |
| 20260508123501 | 44 | 178 | 1.0 | 3.0 | 0.00 | 0.00 | 0.00 | 57 | 1005.6 |
| 20260508123002 | 43 | 178 | 1.0 | 5.0 | 0.00 | 0.00 | 0.00 | 58 | 1005.6 |
| 20260508122501 | 42 | 175 | 1.0 | 5.0 | 0.00 | 0.00 | 0.00 | 59 | 1005.6 |
| 20260508122059 | 42 | 178 | 1.0 | 6.0 | 0.00 | 0.00 | 0.00 | 59 | 1005.5 |
| 20260508121559 | 42 | 188 | 1.0 | 4.0 | 0.00 | 0.00 | 0.00 | 59 | 1005.6 |
| 20260508121057 | 41 | 190 | 2.0 | 4.0 | 0.00 | 0.00 | 0.00 | 59 | 1005.6 |
| 20260508120556 | 41 | 185 | 1.0 | 4.0 | 0.00 | 0.00 | 0.00 | 59 | 1005.6 |
| 20260508120058 | 41 | 182 | 1.0 | 4.0 | 0.00 | 0.00 | 0.00 | 60 | 1005.7 |
| 20260508115556 | 40 | 182 | 1.0 | 4.0 | 0.00 | 0.00 | 0.00 | 61 | 1005.8 |
| 20260508115057 | 40 | 182 | 1.0 | 4.0 | 0.00 | 0.00 | 0.00 | 61 | 1005.6 |
| 20260508114554 | 39 | 180 | 2.0 | 5.0 | 0.00 | 0.00 | 0.00 | 61 | 1005.7 |
| 20260508114052 | 39 | 187 | 1.0 | 5.0 | 0.00 | 0.00 | 0.00 | 61 | 1005.8 |
| 20260508113551 | 39 | 191 | 3.0 | 5.0 | 0.00 | 0.00 | 0.00 | 61 | 1005.8 |
| 20260508113051 | 39 | 187 | 2.0 | 6.0 | 0.00 | 0.00 | 0.00 | 61 | 1005.8 |
| 20260508112550 | 39 | 177 | 2.0 | 5.0 | 0.00 | 0.00 | 0.00 | 61 | 1005.8 |
| 20260508112050 | 39 | 165 | 2.0 | 6.0 | 0.00 | 0.00 | 0.00 | 62 | 1005.8 |
| 20260508111552 | 38 | 171 | 2.0 | 5.0 | 0.00 | 0.00 | 0.00 | 62 | 1005.8 |
| 20260508111048 | 38 | 171 | 1.0 | 3.0 | 0.00 | 0.00 | 0.00 | 62 | 1005.9 |
| 20260508110547 | 38 | 169 | 0.0 | 3.0 | 0.00 | 0.00 | 0.00 | 62 | 1005.9 |
| 20260508110047 | 38 | 169 | 0.0 | 2.0 | 0.00 | 0.00 | 0.00 | 62 | 1006.1 |
| 20260508105548 | 38 | 169 | 0.0 | 2.0 | 0.00 | 0.00 | 0.00 | 61 | 1006.0 |
| 20260508105046 | 38 | 169 | 0.0 | 3.0 | 0.00 | 0.00 | 0.00 | 61 | 1006.1 |
| 20260508104546 | 39 | 169 | 1.0 | 5.0 | 0.00 | 0.00 | 0.00 | 61 | 1006.0 |
| 20260508104045 | 39 | 171 | 3.0 | 5.0 | 0.00 | 0.00 | 0.00 | 60 | 1006.0 |
| 20260508103545 | 39 | 160 | 2.0 | 5.0 | 0.00 | 0.00 | 0.00 | 60 | 1006.1 |
| 20260508103044 | 39 | 185 | 2.0 | 4.0 | 0.00 | 0.00 | 0.00 | 61 | 1006.1 |
| 20260508102542 | 39 | 169 | 2.0 | 5.0 | 0.00 | 0.00 | 0.00 | 62 | 1006.1 |
| 20260508102045 | 39 | 162 | 2.0 | 3.0 | 0.00 | 0.00 | 0.00 | 61 | 1006.2 |
| 20260508101542 | 39 | 161 | 0.0 | 2.0 | 0.00 | 0.00 | 0.00 | 62 | 1006.2 |
| 20260508101041 | 39 | 161 | 1.0 | 3.0 | 0.00 | 0.00 | 0.00 | 63 | 1006.2 |
| 20260508100540 | 39 | 161 | 1.0 | 5.0 | 0.00 | 0.00 | 0.00 | 63 | 1006.2 |
| 20260508100051 | 39 | 159 | 2.0 | 5.0 | 0.00 | 0.00 | 0.00 | 63 | 1006.4 |
| 20260508095540 | 39 | 122 | 1.0 | 3.0 | 0.00 | 0.00 | 0.00 | 64 | 1006.4 |
| 20260508095036 | 39 | 98 | 1.0 | 3.0 | 0.00 | 0.00 | 0.00 | 65 | 1006.4 |
| 20260508094539 | 40 | 53 | 0.0 | 2.0 | 0.00 | 0.00 | 0.00 | 65 | 1006.5 |
| 20260508094035 | 40 | 53 | 1.0 | 3.0 | 0.00 | 0.00 | 0.00 | 65 | 1006.5 |
| 20260508093534 | 40 | 53 | 1.0 | 3.0 | 0.00 | 0.00 | 0.00 | 65 | 1006.6 |
| 20260508093034 | 40 | 351 | 0.0 | 0.0 | 0.00 | 0.00 | 0.00 | 65 | 1006.6 |
| 20260508092534 | 40 | 355 | 0.0 | 0.0 | 0.00 | 0.00 | 0.00 | 64 | 1006.6 |
| 20260508092032 | 40 | 355 | 0.0 | 0.0 | 0.00 | 0.00 | 0.00 | 63 | 1006.7 |
| 20260508091533 | 40 | 355 | 0.0 | 0.0 | 0.00 | 0.00 | 0.00 | 64 | 1006.6 |
| 20260508091034 | 40 | 355 | 0.0 | 0.0 | 0.00 | 0.00 | 0.00 | 66 | 1006.7 |
| 20260508090535 | 39 | 355 | 0.0 | 0.0 | 0.00 | 0.00 | 0.00 | 65 | 1006.8 |
| 20260508090048 | 39 | 355 | 0.0 | 0.0 | 0.00 | 0.00 | 0.00 | 66 | 1006.8 |
| 20260508085531 | 38 | 355 | 0.0 | 0.0 | 0.00 | 0.00 | 0.00 | 65 | 1006.8 |
| 20260508085031 | 38 | 355 | 0.0 | 0.0 | 0.00 | 0.00 | 0.00 | 65 | 1006.8 |
| 20260508084531 | 38 | 355 | 0.0 | 0.0 | 0.00 | 0.00 | 0.00 | 65 | 1006.8 |
| 20260508084030 | 38 | 355 | 0.0 | 0.0 | 0.00 | 0.00 | 0.00 | 65 | 1006.8 |
| 20260508083533 | 38 | 355 | 0.0 | 0.0 | 0.00 | 0.00 | 0.00 | 65 | 1006.8 |
| 20260508083030 | 38 | 355 | 0.0 | 0.0 | 0.00 | 0.00 | 0.00 | 65 | 1006.8 |
| 20260508082528 | 38 | 355 | 0.0 | 0.0 | 0.00 | 0.00 | 0.00 | 64 | 1006.8 |
| 20260508082028 | 38 | 355 | 0.0 | 0.0 | 0.00 | 0.00 | 0.00 | 63 | 1006.7 |
| 20260508081532 | 39 | 355 | 0.0 | 0.0 | 0.00 | 0.00 | 0.00 | 62 | 1006.8 |
| 20260508081027 | 39 | 355 | 0.0 | 1.0 | 0.00 | 0.00 | 0.00 | 62 | 1006.8 |
| 20260508080531 | 39 | 355 | 0.0 | 1.0 | 0.00 | 0.00 | 0.00 | 61 | 1007.0 |
| 20260508080025 | 39 | 355 | 0.0 | 1.0 | 0.00 | 0.00 | 0.00 | 60 | 1007.0 |
| 20260508075525 | 40 | 355 | 0.0 | 1.0 | 0.00 | 0.00 | 0.00 | 60 | 1007.0 |
| 20260508075025 | 40 | 355 | 0.0 | 2.0 | 0.00 | 0.00 | 0.00 | 60 | 1007.0 |
| 20260508074526 | 40 | 355 | 1.0 | 2.0 | 0.00 | 0.00 | 0.00 | 60 | 1007.0 |
| 20260508074023 | 40 | 355 | 0.0 | 2.0 | 0.00 | 0.00 | 0.00 | 59 | 1007.1 |
| 20260508073523 | 40 | 355 | 0.0 | 1.0 | 0.00 | 0.00 | 0.00 | 59 | 1007.0 |
| 20260508073025 | 40 | 355 | 0.0 | 2.0 | 0.00 | 0.00 | 0.00 | 59 | 1007.1 |
| 20260508072521 | 40 | 355 | 1.0 | 2.0 | 0.00 | 0.00 | 0.00 | 59 | 1007.1 |
| 20260508072021 | 40 | 355 | 1.0 | 2.0 | 0.00 | 0.00 | 0.00 | 60 | 1007.1 |
| 20260508071526 | 40 | 355 | 0.0 | 3.0 | 0.00 | 0.00 | 0.00 | 60 | 1007.2 |
| 20260508071022 | 40 | 355 | 1.0 | 3.0 | 0.00 | 0.00 | 0.00 | 60 | 1007.2 |
| 20260508070520 | 40 | 355 | 0.0 | 3.0 | 0.00 | 0.00 | 0.00 | 61 | 1007.3 |
| 20260508070020 | 40 | 355 | 0.0 | 2.0 | 0.00 | 0.00 | 0.00 | 61 | 1007.3 |
| 20260508065520 | 40 | 355 | 0.0 | 2.0 | 0.00 | 0.00 | 0.00 | 61 | 1007.3 |
| 20260508065023 | 40 | 355 | 1.0 | 2.0 | 0.00 | 0.00 | 0.00 | 61 | 1007.3 |
| 20260508064519 | 40 | 19 | 0.0 | 0.0 | 0.00 | 0.00 | 0.00 | 57 | 1007.3 |
| 20260508064017 | 39 | 19 | 0.0 | 0.0 | 0.00 | 0.00 | 0.00 | 57 | 1007.3 |
| 20260508063519 | 39 | 19 | 0.0 | 0.0 | 0.00 | 0.00 | 0.00 | 57 | 1007.2 |
| 20260508063016 | 39 | 19 | 0.0 | 0.0 | 0.00 | 0.00 | 0.00 | 56 | 1007.3 |
| 20260508062514 | 40 | 19 | 0.0 | 1.0 | 0.00 | 0.00 | 0.00 | 55 | 1007.2 |
| 20260508062014 | 40 | 21 | 0.0 | 1.0 | 0.00 | 0.00 | 0.00 | 55 | 1007.3 |
| 20260508061514 | 40 | 26 | 0.0 | 0.0 | 0.00 | 0.00 | 0.00 | 54 | 1007.2 |
| 20260508061014 | 40 | 26 | 0.0 | 0.0 | 0.00 | 0.00 | 0.00 | 54 | 1007.3 |
| 20260508060514 | 40 | 26 | 0.0 | 0.0 | 0.00 | 0.00 | 0.00 | 55 | 1007.3 |
| 20260508060013 | 40 | 26 | 0.0 | 0.0 | 0.00 | 0.00 | 0.00 | 55 | 1007.3 |
| 20260508055512 | 40 | 26 | 0.0 | 0.0 | 0.00 | 0.00 | 0.00 | 54 | 1007.3 |
| 20260508055013 | 40 | 26 | 0.0 | 0.0 | 0.00 | 0.00 | 0.00 | 54 | 1007.3 |
| 20260508054511 | 40 | 26 | 0.0 | 0.0 | 0.00 | 0.00 | 0.00 | 53 | 1007.3 |
| 20260508054013 | 41 | 26 | 0.0 | 0.0 | 0.00 | 0.00 | 0.00 | 53 | 1007.3 |
| 20260508053508 | 41 | 26 | 0.0 | 0.0 | 0.00 | 0.00 | 0.00 | 52 | 1007.3 |
| 20260508053011 | 41 | 26 | 0.0 | 0.0 | 0.00 | 0.00 | 0.00 | 52 | 1007.3 |
| 20260508052506 | 42 | 26 | 0.0 | 0.0 | 0.00 | 0.00 | 0.00 | 51 | 1007.3 |
| 20260508052005 | 42 | 26 | 0.0 | 0.0 | 0.00 | 0.00 | 0.00 | 50 | 1007.3 |
| 20260508051504 | 43 | 26 | 0.0 | 0.0 | 0.00 | 0.00 | 0.00 | 50 | 1007.3 |
| 20260508051005 | 43 | 26 | 0.0 | 0.0 | 0.00 | 0.00 | 0.00 | 49 | 1007.3 |
| 20260508050501 | 44 | 26 | 0.0 | 0.0 | 0.00 | 0.00 | 0.00 | 50 | 1007.3 |
| 20260508050104 | 44 | 26 | 0.0 | 0.0 | 0.00 | 0.00 | 0.00 | 50 | 1007.3 |
| 20260508045559 | 44 | 24 | 0.0 | 1.0 | 0.00 | 0.00 | 0.00 | 51 | 1007.3 |
| 20260508045100 | 45 | 23 | 0.0 | 1.0 | 0.00 | 0.00 | 0.00 | 49 | 1007.3 |
| 20260508044601 | 45 | 23 | 0.0 | 1.0 | 0.00 | 0.00 | 0.00 | 48 | 1007.3 |
| 20260508044059 | 46 | 23 | 0.0 | 0.0 | 0.00 | 0.00 | 0.00 | 47 | 1007.3 |
| 20260508043602 | 46 | 23 | 0.0 | 1.0 | 0.00 | 0.00 | 0.00 | 46 | 1007.3 |
| 20260508043059 | 47 | 23 | 0.0 | 1.0 | 0.00 | 0.00 | 0.00 | 45 | 1007.3 |
| 20260508042559 | 47 | 23 | 0.0 | 1.0 | 0.00 | 0.00 | 0.00 | 45 | 1007.4 |
| 20260508042058 | 47 | 23 | 0.0 | 2.0 | 0.00 | 0.00 | 0.00 | 44 | 1007.4 |
| 20260508041559 | 48 | 23 | 0.0 | 2.0 | 0.00 | 0.00 | 0.00 | 43 | 1007.5 |
| 20260508041058 | 48 | 23 | 1.0 | 2.0 | 0.00 | 0.00 | 0.00 | 43 | 1007.5 |
| 20260508040558 | 48 | 23 | 0.0 | 2.0 | 0.00 | 0.00 | 0.00 | 42 | 1007.5 |
| 20260508040101 | 49 | 23 | 0.0 | 2.0 | 0.00 | 0.00 | 0.00 | 42 | 1007.5 |
| 20260508035559 | 49 | 22 | 0.0 | 2.0 | 0.00 | 0.00 | 0.00 | 41 | 1007.5 |
| 20260508035058 | 49 | 22 | 1.0 | 2.0 | 0.00 | 0.00 | 0.00 | 42 | 1007.5 |
| 20260508034558 | 49 | 22 | 0.0 | 1.0 | 0.00 | 0.00 | 0.00 | 42 | 1007.5 |
| 20260508034057 | 48 | 22 | 0.0 | 1.0 | 0.00 | 0.00 | 0.00 | 43 | 1007.5 |
| 20260508033557 | 49 | 22 | 0.0 | 1.0 | 0.00 | 0.00 | 0.00 | 42 | 1007.5 |
| 20260508033100 | 49 | 22 | 0.0 | 1.0 | 0.00 | 0.00 | 0.00 | 41 | 1007.6 |
| 20260508032559 | 50 | 22 | 0.0 | 2.0 | 0.00 | 0.00 | 0.00 | 40 | 1007.5 |
| 20260508032059 | 50 | 22 | 0.0 | 2.0 | 0.00 | 0.00 | 0.00 | 39 | 1007.6 |
| 20260508031600 | 51 | 22 | 0.0 | 3.0 | 0.00 | 0.00 | 0.00 | 39 | 1007.6 |
| 20260508031056 | 51 | 22 | 1.0 | 3.0 | 0.00 | 0.00 | 0.00 | 38 | 1007.7 |
| 20260508030557 | 51 | 22 | 1.0 | 3.0 | 0.00 | 0.00 | 0.00 | 38 | 1007.6 |
| 20260508025559 | 52 | 20 | 0.0 | 3.0 | 0.00 | 0.00 | 0.00 | 38 | 1007.6 |
| 20260508025056 | 52 | 20 | 2.0 | 3.0 | 0.00 | 0.00 | 0.00 | 38 | 1007.6 |
| 20260508024618 | 53 | 19 | 1.0 | 3.0 | 0.00 | 0.00 | 0.00 | 38 | 1007.6 |
| 20260508024055 | 53 | 19 | 1.0 | 4.0 | 0.00 | 0.00 | 0.00 | 38 | 1007.6 |
| 20260508023555 | 53 | 18 | 2.0 | 4.0 | 0.00 | 0.00 | 0.00 | 38 | 1007.6 |
| 20260508023055 | 53 | 17 | 2.0 | 3.0 | 0.00 | 0.00 | 0.00 | 38 | 1007.6 |
| 20260508022556 | 53 | 17 | 1.0 | 3.0 | 0.00 | 0.00 | 0.00 | 37 | 1007.5 |
| 20260508022055 | 54 | 17 | 1.0 | 3.0 | 0.00 | 0.00 | 0.00 | 37 | 1007.4 |
| 20260508021604 | 54 | 17 | 0.0 | 3.0 | 0.00 | 0.00 | 0.00 | 36 | 1007.4 |
| 20260508021054 | 55 | 17 | 1.0 | 3.0 | 0.00 | 0.00 | 0.00 | 36 | 1007.3 |
| 20260508020554 | 55 | 17 | 1.0 | 3.0 | 0.00 | 0.00 | 0.00 | 36 | 1007.2 |
| 20260508020057 | 55 | 17 | 1.0 | 3.0 | 0.00 | 0.00 | 0.00 | 36 | 1007.2 |
| 20260508015554 | 56 | 17 | 1.0 | 4.0 | 0.00 | 0.00 | 0.00 | 35 | 1007.2 |
| 20260508015054 | 56 | 18 | 2.0 | 4.0 | 0.00 | 0.00 | 0.00 | 35 | 1007.1 |
| 20260508014556 | 57 | 16 | 2.0 | 4.0 | 0.00 | 0.00 | 0.00 | 33 | 1007.1 |
| 20260508014054 | 57 | 23 | 2.0 | 5.0 | 0.00 | 0.00 | 0.00 | 33 | 1007.0 |
| 20260508013552 | 58 | 12 | 2.0 | 8.0 | 0.00 | 0.00 | 0.00 | 32 | 1007.0 |
| 20260508013053 | 58 | 39 | 4.0 | 8.0 | 0.00 | 0.00 | 0.00 | 32 | 1007.0 |
| 20260508012553 | 58 | 5 | 3.0 | 8.0 | 0.00 | 0.00 | 0.00 | 32 | 1007.0 |
| 20260508012052 | 58 | 355 | 3.0 | 11.0 | 0.00 | 0.00 | 0.00 | 32 | 1006.9 |
| 20260508011601 | 58 | 343 | 5.0 | 11.0 | 0.00 | 0.00 | 0.00 | 31 | 1006.9 |
| 20260508011052 | 59 | 355 | 5.0 | 12.0 | 0.00 | 0.00 | 0.00 | 31 | 1006.8 |
| 20260508010552 | 59 | 328 | 3.0 | 14.0 | 0.00 | 0.00 | 0.00 | 30 | 1006.7 |
| 20260508010056 | 60 | 350 | 6.0 | 13.0 | 0.00 | 0.00 | 0.00 | 29 | 1006.7 |
| 20260508005555 | 60 | 329 | 9.0 | 13.0 | 0.00 | 0.00 | 0.00 | 29 | 1006.6 |
| 20260508005051 | 60 | 302 | 5.0 | 12.0 | 0.00 | 0.00 | 0.00 | 28 | 1006.6 |
| 20260508004559 | 60 | 327 | 5.0 | 12.0 | 0.00 | 0.00 | 0.00 | 29 | 1006.6 |
| 20260508004051 | 60 | 305 | 2.0 | 12.0 | 0.00 | 0.00 | 0.00 | 28 | 1006.6 |
| 20260508003551 | 61 | 298 | 4.0 | 11.0 | 0.00 | 0.00 | 0.00 | 28 | 1006.6 |
| 20260508003051 | 61 | 308 | 6.0 | 14.0 | 0.00 | 0.00 | 0.00 | 27 | 1006.6 |
| 20260508002551 | 61 | 303 | 5.0 | 14.0 | 0.00 | 0.00 | 0.00 | 28 | 1006.5 |
| 20260508002051 | 61 | 315 | 7.0 | 12.0 | 0.00 | 0.00 | 0.00 | 28 | 1006.6 |
| 20260508001551 | 61 | 316 | 7.0 | 12.0 | 0.00 | 0.00 | 0.00 | 28 | 1006.6 |
| 20260508001050 | 61 | 259 | 5.0 | 12.0 | 0.00 | 0.00 | 0.00 | 28 | 1006.6 |
| 20260508000550 | 61 | 316 | 6.0 | 13.0 | 0.00 | 0.00 | 0.00 | 28 | 1006.6 |
| 20260508000052 | 62 | 289 | 6.0 | 16.0 | 0.00 | 0.00 | 0.00 | 28 | 1006.7 |
| 20260507235550 | 62 | 287 | 7.0 | 21.0 | 0.00 | 0.00 | 0.00 | 28 | 1006.6 |
| 20260507235049 | 62 | 360 | 9.0 | 21.0 | 0.00 | 0.00 | 0.00 | 28 | 1006.6 |
| 20260507234549 | 62 | 258 | 7.0 | 15.0 | 0.00 | 0.00 | 0.00 | 28 | 1006.7 |
| 20260507234048 | 62 | 269 | 5.0 | 15.0 | 0.00 | 0.00 | 0.00 | 28 | 1006.6 |
| 20260507233548 | 61 | 346 | 3.0 | 15.0 | 0.00 | 0.00 | 0.00 | 28 | 1006.8 |
| 20260507233048 | 62 | 286 | 5.0 | 15.0 | 0.00 | 0.00 | 0.00 | 28 | 1006.8 |
| 20260507232547 | 61 | 293 | 5.0 | 15.0 | 0.00 | 0.00 | 0.00 | 29 | 1006.8 |
| 20260507232048 | 61 | 286 | 5.0 | 15.0 | 0.00 | 0.00 | 0.00 | 28 | 1006.9 |
| 20260507231546 | 61 | 327 | 4.0 | 18.0 | 0.00 | 0.00 | 0.00 | 28 | 1006.8 |
| 20260507231046 | 61 | 302 | 9.0 | 18.0 | 0.00 | 0.00 | 0.00 | 28 | 1006.9 |
| 20260507230548 | 61 | 332 | 8.0 | 18.0 | 0.00 | 0.00 | 0.00 | 28 | 1006.9 |
| 20260507225546 | 62 | 319 | 8.0 | 13.0 | 0.00 | 0.00 | 0.00 | 28 | 1007.0 |
| 20260507225044 | 61 | 306 | 4.0 | 16.0 | 0.00 | 0.00 | 0.00 | 29 | 1007.0 |
| 20260507224547 | 61 | 263 | 5.0 | 16.0 | 0.00 | 0.00 | 0.00 | 28 | 1007.2 |
| 20260507224042 | 62 | 273 | 6.0 | 18.0 | 0.00 | 0.00 | 0.00 | 29 | 1007.1 |
| 20260507223542 | 61 | 274 | 9.0 | 18.0 | 0.00 | 0.00 | 0.00 | 28 | 1007.0 |
| 20260507223042 | 61 | 329 | 11.0 | 17.0 | 0.00 | 0.00 | 0.00 | 28 | 1007.1 |
| 20260507222542 | 61 | 298 | 3.0 | 14.0 | 0.00 | 0.00 | 0.00 | 28 | 1007.2 |
| 20260507222040 | 61 | 287 | 7.0 | 12.0 | 0.00 | 0.00 | 0.00 | 29 | 1007.3 |
| 20260507221543 | 61 | 263 | 6.0 | 13.0 | 0.00 | 0.00 | 0.00 | 28 | 1007.3 |
| 20260507221039 | 60 | 300 | 5.0 | 13.0 | 0.00 | 0.00 | 0.00 | 29 | 1007.3 |
| 20260507220542 | 61 | 263 | 5.0 | 14.0 | 0.00 | 0.00 | 0.00 | 29 | 1007.4 |
| 20260507220041 | 61 | 270 | 7.0 | 16.0 | 0.00 | 0.00 | 0.00 | 29 | 1007.4 |
| 20260507215538 | 61 | 309 | 7.0 | 23.0 | 0.00 | 0.00 | 0.00 | 28 | 1007.5 |
| 20260507215037 | 61 | 266 | 9.0 | 23.0 | 0.00 | 0.00 | 0.00 | 29 | 1007.5 |
| 20260507214538 | 61 | 269 | 7.0 | 21.0 | 0.00 | 0.00 | 0.00 | 29 | 1007.6 |
| 20260507214036 | 60 | 315 | 6.0 | 14.0 | 0.00 | 0.00 | 0.00 | 29 | 1007.6 |
| 20260507213536 | 61 | 267 | 7.0 | 16.0 | 0.00 | 0.00 | 0.00 | 29 | 1007.9 |
| 20260507213034 | 61 | 323 | 8.0 | 16.0 | 0.00 | 0.00 | 0.00 | 29 | 1008.0 |
| 20260507212534 | 60 | 294 | 6.0 | 17.0 | 0.00 | 0.00 | 0.00 | 30 | 1007.9 |
| 20260507212033 | 60 | 336 | 9.0 | 17.0 | 0.00 | 0.00 | 0.00 | 30 | 1008.0 |
| 20260507211533 | 59 | 321 | 5.0 | 15.0 | 0.00 | 0.00 | 0.00 | 31 | 1008.1 |
| 20260507211033 | 60 | 279 | 6.0 | 16.0 | 0.00 | 0.00 | 0.00 | 29 | 1008.1 |
| 20260507210533 | 60 | 280 | 9.0 | 16.0 | 0.00 | 0.00 | 0.00 | 29 | 1008.1 |
| 20260507210035 | 60 | 283 | 6.0 | 19.0 | 0.00 | 0.00 | 0.00 | 30 | 1008.2 |
| 20260507205531 | 60 | 269 | 7.0 | 19.0 | 0.00 | 0.00 | 0.00 | 29 | 1008.2 |
| 20260507205031 | 60 | 323 | 10.0 | 19.0 | 0.00 | 0.00 | 0.00 | 31 | 1008.3 |
| 20260507204530 | 60 | 313 | 6.0 | 17.0 | 0.00 | 0.00 | 0.00 | 29 | 1008.4 |
| 20260507204029 | 60 | 340 | 6.0 | 17.0 | 0.00 | 0.00 | 0.00 | 29 | 1008.4 |
| 20260507203530 | 60 | 219 | 7.0 | 14.0 | 0.00 | 0.00 | 0.00 | 29 | 1008.4 |
| 20260507203040 | 60 | 309 | 6.0 | 20.0 | 0.00 | 0.00 | 0.00 | 29 | 1008.5 |
| 20260507202531 | 60 | 360 | 6.0 | 20.0 | 0.00 | 0.00 | 0.00 | 29 | 1008.6 |
| 20260507202026 | 60 | 319 | 12.0 | 20.0 | 0.00 | 0.00 | 0.00 | 29 | 1008.6 |
| 20260507201526 | 59 | 339 | 7.0 | 18.0 | 0.00 | 0.00 | 0.00 | 29 | 1008.6 |
| 20260507201025 | 60 | 136 | 6.0 | 18.0 | 0.00 | 0.00 | 0.00 | 29 | 1008.9 |
| 20260507200526 | 60 | 336 | 6.0 | 19.0 | 0.00 | 0.00 | 0.00 | 31 | 1008.8 |
| 20260507200023 | 59 | 337 | 11.0 | 19.0 | 0.00 | 0.00 | 0.00 | 30 | 1009.0 |
| 20260507195525 | 59 | 300 | 7.0 | 16.0 | 0.00 | 0.00 | 0.00 | 30 | 1009.1 |
| 20260507195022 | 60 | 287 | 7.0 | 14.0 | 0.00 | 0.00 | 0.00 | 32 | 1009.0 |
| 20260507194527 | 59 | 261 | 4.0 | 12.0 | 0.00 | 0.00 | 0.00 | 29 | 1009.0 |
| 20260507194024 | 59 | 319 | 7.0 | 13.0 | 0.00 | 0.00 | 0.00 | 32 | 1009.1 |
| 20260507193524 | 58 | 265 | 7.0 | 15.0 | 0.00 | 0.00 | 0.00 | 33 | 1009.1 |
| 20260507193021 | 58 | 256 | 7.0 | 19.0 | 0.00 | 0.00 | 0.00 | 30 | 1009.2 |
| 20260507192519 | 59 | 291 | 13.0 | 19.0 | 0.00 | 0.00 | 0.00 | 30 | 1009.2 |
| 20260507192018 | 58 | 243 | 5.0 | 15.0 | 0.00 | 0.00 | 0.00 | 31 | 1009.1 |
| 20260507191520 | 58 | 347 | 5.0 | 15.0 | 0.00 | 0.00 | 0.00 | 30 | 1009.2 |
| 20260507191017 | 58 | 273 | 7.0 | 15.0 | 0.00 | 0.00 | 0.00 | 31 | 1009.3 |
| 20260507190517 | 58 | 283 | 3.0 | 12.0 | 0.00 | 0.00 | 0.00 | 30 | 1009.2 |